Aswan, Egypt

7:24 AM EET on February 14, 2016 (GMT +0200)
Aswan International

Weather History for HESN - December, 2014

Change the Weather History Date:

Tuesday, December 30, 2014

  Actual Average Record
Temperature  
Mean Temperature 63 °F -  
Max Temperature 76 °F 70 °F 84 °F (1999)
Min Temperature 50 °F 49 °F 35 °F (2004)
Degree Days  
Heating Degree Days 2    
Growing Degree Days 13 (Base 50)    
Moisture  
Dew Point 33 °F    
Average Humidity 32    
Maximum Humidity 54    
Minimum Humidity 11    
Precipitation  
Precipitation 0.00 in 0.00 in - ()
Sea Level Pressure  
Sea Level Pressure 30.03 in    
Wind  
Wind Speed 6 mph ()    
Max Wind Speed 9 mph    
Max Gust Speed -    
Visibility 6.0 miles    
Events      
Averages and records for this station are not official NWS values.
T = Trace of Precipitation, MM = Missing Value Source: Averaged Metar Reports

Daily Weather History Graph

Daily Weather History Graph

Search for Another Location

Airport or City:

Trip Planner

Search our weather history database for the weather conditions in past years. The results will help you decide how hot, cold, wet, or windy it might be!

Date:

Astronomy

Dec. 30, 2014 Rise Set
Actual Time 6:31 AM EET 5:11 PM EET
Civil Twilight 6:06 AM EET 5:36 PM EET
Nautical Twilight 5:38 AM EET 6:04 PM EET
Astronomical Twilight 5:10 AM EET 6:32 PM EET
Moon 12:49 PM EET (12/30) 12:56 AM EET (12/30)
Length of Visible Light 11h 30m
Length of Day
10h 40m
Waxing Gibbous, 68% of the Moon is Illuminated
Dec 30
Waxing Gibbous
Jan 5
Full
Jan 13
Last Quarter
Jan 20
New
Jan 27
First Quarter

Hourly Weather History & Observations

Time (EET) Temp. Dew Point Humidity Pressure Visibility Wind Dir Wind Speed Gust Speed Precip Events Conditions
12:00 AM 57.2 °F 33.8 °F 41% 30.09 in - North 6.9 mph - N/A   Clear
1:00 AM 55.4 °F 33.8 °F 44% 30.09 in - North 5.8 mph - N/A   Clear
2:00 AM 54 °F 32 °F 31% 30.09 in 6 mi North 5.8 mph - -  
2:00 AM 53.6 °F 32.0 °F 44% 30.06 in - North 5.8 mph - N/A   Clear
3:00 AM 53.6 °F 32.0 °F 44% 30.06 in - North 5.8 mph - N/A   Clear
4:00 AM 51.8 °F 33.8 °F 50% 30.06 in - North 4.6 mph - N/A   Clear
5:00 AM 52 °F 36 °F 42% 30.08 in 6 mi North 6.9 mph - -  
5:00 AM 51.8 °F 35.6 °F 54% 30.06 in - North 6.9 mph - N/A   Clear
6:00 AM 51.8 °F 35.6 °F 54% 30.06 in - North 6.9 mph - N/A   Clear
7:00 AM 50.0 °F 33.8 °F 54% 30.06 in - North 5.8 mph - N/A   Clear
8:00 AM 54 °F 35 °F 36% 30.10 in 6 mi North 6.9 mph - -  
8:00 AM 53.6 °F 35.6 °F 51% 30.09 in - North 6.9 mph - N/A   Clear
9:00 AM 59.0 °F 35.6 °F 42% 30.09 in - North 9.2 mph - N/A   Clear
10:00 AM 64.4 °F 33.8 °F 32% 30.09 in - North 8.1 mph - N/A   Clear
11:00 AM 67 °F 35 °F 19% 30.05 in 6 mi North 8.1 mph - -  
11:00 AM 66.2 °F 33.8 °F 30% 30.06 in - North 8.1 mph - N/A   Clear
12:00 PM 71.6 °F 33.8 °F 25% 30.01 in - North 6.9 mph - N/A   Clear
1:00 PM 73.4 °F 55.4 °F 53% 30.01 in - North 9.2 mph - N/A   Clear
2:00 PM 76 °F 35 °F 13% 29.96 in 6 mi North 9.2 mph - -  
2:00 PM 75.2 °F 35.6 °F 24% 29.98 in - North 9.2 mph - N/A   Clear
3:00 PM 75.2 °F 33.8 °F 22% 29.95 in - North 9.2 mph - N/A   Clear
4:00 PM 75.2 °F 32.0 °F 21% 29.98 in - North 9.2 mph - N/A   Clear
5:00 PM 73 °F 30 °F 11% 29.96 in 6 mi NNW 8.1 mph - -  
5:00 PM 73.4 °F 30.2 °F 20% 29.98 in - NNW 8.1 mph - N/A   Clear
6:00 PM 69.8 °F 28.4 °F 21% 29.98 in - NNW 6.9 mph - N/A   Clear
7:00 PM 68.0 °F 28.4 °F 23% 30.01 in - North 8.1 mph - N/A   Clear
8:00 PM 65 °F 27 °F 14% 30.00 in 6 mi North 5.8 mph - -  
8:00 PM 64.4 °F 26.6 °F 24% 30.01 in - North 5.8 mph - N/A   Clear
9:00 PM 64.4 °F 24.8 °F 22% 30.01 in - North 6.9 mph - N/A   Clear
10:00 PM 62.6 °F 24.8 °F 24% 30.01 in - North 6.9 mph - N/A   Clear
11:00 PM 60 °F 25 °F 15% 30.01 in 6 mi North 5.8 mph - -  
11:00 PM 60.8 °F 24.8 °F 25% 30.01 in - North 5.8 mph - N/A   Clear